• In United Kingdom
  • List of Countries
  • For 7 days
  • Water Temperature
  • Satellite Maps
  • Weather Map
  • Weather Widgets
  • user-avatar
    Login

    Hourly Weather Inhambane

    Today, 23 July, Monday

    Time Temperature Precipitation Wind Pressure Humidity
    00:00 +31°C° 0 mm 1 mps 718 mmHg 37%
    01:00 +31°C° 0 mm 1 mps 718 mmHg 38%
    02:00 +30°C° 0 mm 1 mps 717 mmHg 36%
    03:00 +30°C° 0 mm 1 mps 717 mmHg 34%
    04:00 +30°C° 0 mm 1 mps 717 mmHg 32%
    05:00 +29°C° 0 mm 1 mps 717 mmHg 30%
    06:00 +31°C° 0 mm 2 mps 718 mmHg 26%
    07:00 +34°C° 0 mm 2 mps 718 mmHg 22%
    08:00 +36°C° 0 mm 2 mps 718 mmHg 19%
    09:00 +37°C° 0 mm 2 mps 718 mmHg 17%
    10:00 +38°C° 0 mm 3 mps 718 mmHg 15%
    11:00 +41°C° 0 mm 4 mps 718 mmHg 13%
    12:00 +41°C° 0 mm 4 mps 718 mmHg 13%
    13:00 +41°C° 0 mm 4 mps 718 mmHg 13%
    14:00 +42°C° 0 mm 5 mps 717 mmHg 12%
    15:00 +42°C° 0 mm 5 mps 717 mmHg 14%
    16:00 +41°C° 0 mm 5 mps 717 mmHg 16%
    17:00 +40°C° 0 mm 5 mps 717 mmHg 18%
    18:00 +38°C° 0 mm 4 mps 717 mmHg 23%
    19:00 +36°C° 0 mm 3 mps 717 mmHg 27%
    20:00 +35°C° 0 mm 3 mps 717 mmHg 32%
    21:00 +34°C° 0 mm 2 mps 717 mmHg 35%
    22:00 +32°C° 0 mm 2 mps 717 mmHg 38%
    23:00 +31°C° 0 mm 1 mps 717 mmHg 41%

    Tomorrow, 24 July, Tuesday

    Time Temperature Precipitation Wind Pressure Humidity
    00:00 +31°C° 0 mm 1 mps 717 mmHg 42%
    01:00 +30°C° 0 mm 1 mps 717 mmHg 44%
    02:00 +30°C° 0 mm 1 mps 717 mmHg 45%
    03:00 +29°C° 0 mm 1 mps 717 mmHg 44%
    04:00 +29°C° 0 mm 1 mps 717 mmHg 44%
    05:00 +29°C° 0 mm 1 mps 717 mmHg 44%
    06:00 +30°C° 0 mm 1 mps 717 mmHg 38%
    07:00 +32°C° 0 mm 1 mps 717 mmHg 32%
    08:00 +34°C° 0 mm 1 mps 718 mmHg 26%
    09:00 +36°C° 0 mm 1 mps 718 mmHg 22%
    10:00 +38°C° 0 mm 2 mps 718 mmHg 18%
    11:00 +40°C° 0 mm 2 mps 718 mmHg 14%
    12:00 +40°C° 0 mm 3 mps 718 mmHg 14%
    13:00 +42°C° 0 mm 3 mps 718 mmHg 14%
    14:00 +42°C° 0 mm 4 mps 717 mmHg 14%
    15:00 +42°C° 0 mm 4 mps 717 mmHg 16%
    16:00 +41°C° 0 mm 4 mps 717 mmHg 18%
    17:00 +41°C° 0 mm 4 mps 717 mmHg 20%
    18:00 +38°C° 0 mm 4 mps 717 mmHg 23%
    19:00 +37°C° 0 mm 3 mps 717 mmHg 27%
    20:00 +36°C° 0 mm 3 mps 717 mmHg 31%
    21:00 +35°C° 0 mm 2 mps 718 mmHg 32%
    22:00 +34°C° 0 mm 2 mps 718 mmHg 32%
    23:00 +33°C° 0 mm 1 mps 718 mmHg 33%

    Day after tomorrow, 25 July, Wednesday

    Time Temperature Precipitation Wind Pressure Humidity
    00:00 +32°C° 0 mm 1 mps 718 mmHg 34%
    01:00 +32°C° 0 mm 1 mps 717 mmHg 35%
    02:00 +31°C° 0 mm 1 mps 717 mmHg 36%
    03:00 +30°C° 0 mm 1 mps 717 mmHg 36%
    04:00 +30°C° 0 mm 1 mps 717 mmHg 37%
    05:00 +27°C° 0 mm 0 mps 717 mmHg 38%
    06:00 +31°C° 0 mm 1 mps 718 mmHg 32%
    07:00 +34°C° 0 mm 1 mps 718 mmHg 26%
    08:00 +36°C° 0 mm 1 mps 719 mmHg 21%
    09:00 +37°C° 0 mm 1 mps 719 mmHg 18%
    10:00 +40°C° 0 mm 2 mps 719 mmHg 15%
    11:00 +41°C° 0 mm 2 mps 719 mmHg 12%
    12:00 +43°C° 0 mm 3 mps 719 mmHg 12%
    13:00 +43°C° 0 mm 3 mps 719 mmHg 11%
    14:00 +44°C° 0 mm 3 mps 718 mmHg 10%
    15:00 +44°C° 0 mm 3 mps 718 mmHg 11%
    16:00 +43°C° 0 mm 4 mps 717 mmHg 12%
    17:00 +43°C° 0 mm 4 mps 717 mmHg 13%
    18:00 +40°C° 0 mm 3 mps 717 mmHg 17%
    19:00 +39°C° 0 mm 3 mps 718 mmHg 20%
    20:00 +37°C° 0 mm 2 mps 718 mmHg 24%
    21:00 +36°C° 0 mm 2 mps 718 mmHg 25%
    22:00 +36°C° 0 mm 2 mps 718 mmHg 27%
    23:00 +35°C° 0 mm 2 mps 718 mmHg 28%

    26 July, Thursday

    Time Temperature Precipitation Wind Pressure Humidity
    00:00 +33°C° 0 mm 1 mps 718 mmHg 29%
    01:00 +33°C° 0 mm 1 mps 717 mmHg 29%
    02:00 +32°C° 0 mm 1 mps 717 mmHg 29%
    03:00 +32°C° 0 mm 1 mps 717 mmHg 29%
    04:00 +31°C° 0 mm 1 mps 717 mmHg 29%
    05:00 +31°C° 0 mm 1 mps 717 mmHg 29%
    06:00 +33°C° 0 mm 1 mps 718 mmHg 26%
    07:00 +35°C° 0 mm 1 mps 718 mmHg 23%
    08:00 +37°C° 0 mm 1 mps 719 mmHg 20%
    09:00 +40°C° 0 mm 2 mps 719 mmHg 17%
    10:00 +41°C° 0 mm 2 mps 719 mmHg 14%
    11:00 +43°C° 0 mm 2 mps 719 mmHg 10%
    12:00 +43°C° 0 mm 2 mps 719 mmHg 10%
    13:00 +45°C° 0 mm 3 mps 718 mmHg 10%
    14:00 +47°C° 0 mm 4 mps 718 mmHg 9%
    15:00 +45°C° 0 mm 4 mps 718 mmHg 11%
    16:00 +44°C° 0 mm 4 mps 717 mmHg 12%
    17:00 +45°C° 0 mm 5 mps 717 mmHg 13%
    18:00 +42°C° 0 mm 4 mps 717 mmHg 17%
    19:00 +39°C° 0 mm 3 mps 717 mmHg 20%
    20:00 +38°C° 0 mm 2 mps 718 mmHg 23%
    21:00 +37°C° 0 mm 2 mps 718 mmHg 23%
    22:00 +37°C° 0 mm 2 mps 718 mmHg 23%
    23:00 +35°C° 0 mm 1 mps 718 mmHg 23%

    27 July, Friday

    Time Temperature Precipitation Wind Pressure Humidity
    00:00 +34°C° 0 mm 1 mps 717 mmHg 23%
    01:00 +34°C° 0 mm 1 mps 717 mmHg 23%
    02:00 +33°C° 0 mm 1 mps 717 mmHg 23%
    03:00 +33°C° 0 mm 1 mps 717 mmHg 24%
    04:00 +32°C° 0 mm 1 mps 717 mmHg 25%
    05:00 +32°C° 0 mm 1 mps 717 mmHg 26%
    06:00 +35°C° 0 mm 2 mps 718 mmHg 23%
    07:00 +37°C° 0 mm 2 mps 718 mmHg 21%
    08:00 +39°C° 0 mm 2 mps 719 mmHg 18%
    09:00 +40°C° 0 mm 2 mps 719 mmHg 16%
    10:00 +42°C° 0 mm 3 mps 719 mmHg 15%
    11:00 +44°C° 0 mm 3 mps 719 mmHg 13%
    12:00 +44°C° 0 mm 3 mps 718 mmHg 13%
    13:00 +45°C° 0 mm 4 mps 718 mmHg 13%
    14:00 +45°C° 0 mm 4 mps 717 mmHg 13%
    15:00 +46°C° 0 mm 5 mps 717 mmHg 14%
    16:00 +45°C° 0 mm 6 mps 717 mmHg 16%
    17:00 +44°C° 0 mm 6 mps 717 mmHg 17%
    18:00 +42°C° 0 mm 5 mps 717 mmHg 19%
    19:00 +41°C° 0 mm 4 mps 717 mmHg 21%
    20:00 +38°C° 0 mm 3 mps 717 mmHg 24%
    21:00 +38°C° 0 mm 2 mps 717 mmHg 24%
    22:00 +37°C° 0 mm 2 mps 717 mmHg 24%
    23:00 +37°C° 0 mm 2 mps 717 mmHg 24%

    28 July, Saturday

    Time Temperature Precipitation Wind Pressure Humidity
    00:00 +36°C° 0 mm 2 mps 716 mmHg 24%
    01:00 +35°C° 0 mm 2 mps 716 mmHg 24%
    02:00 +35°C° 0 mm 2 mps 716 mmHg 24%
    03:00 +34°C° 0 mm 2 mps 716 mmHg 24%
    04:00 +34°C° 0 mm 2 mps 716 mmHg 25%
    05:00 +32°C° 0 mm 2 mps 716 mmHg 25%
    06:00 +35°C° 0 mm 3 mps 717 mmHg 23%
    07:00 +37°C° 0 mm 4 mps 717 mmHg 20%
    08:00 +40°C° 0 mm 4 mps 718 mmHg 18%
    09:00 +41°C° 0 mm 5 mps 718 mmHg 16%
    10:00 +42°C° 0 mm 5 mps 718 mmHg 15%
    11:00 +45°C° 0 mm 5 mps 718 mmHg 14%
    12:00 +45°C° 0 mm 5 mps 718 mmHg 13%
    13:00 +45°C° 0 mm 5 mps 717 mmHg 13%
    14:00 +46°C° 0 mm 5 mps 717 mmHg 13%
    15:00 +45°C° 0 mm 5 mps 717 mmHg 14%
    16:00 +43°C° 0 mm 5 mps 716 mmHg 15%
    17:00 +42°C° 0 mm 5 mps 716 mmHg 17%
    18:00 +41°C° 0 mm 4 mps 716 mmHg 19%
    19:00 +39°C° 0 mm 3 mps 716 mmHg 21%
    20:00 +38°C° 0 mm 2 mps 717 mmHg 23%
    21:00 +37°C° 0 mm 2 mps 717 mmHg 23%
    22:00 +37°C° 0 mm 2 mps 717 mmHg 24%
    23:00 +36°C° 0 mm 2 mps 717 mmHg 24%
    Show more